APSTAR-9

Last updated on Sat Nov 01 2025 00:02:48 GMT+0000 (Coordinated Universal Time)

1 40982U 15059A 25304.71114356 -.00000255 00000+0 00000+0 0 9996 2 40982 0.0112 301.4856 0003705 268.8839 227.9464 1.00270889 36823
UTC large
Height (km)
Speed (km/s)
/
Latitude / Longitude
Inclination (degrees)
Orbital Period (minutes)
Azimuth
Elevation
Range (km)
Doppler Factor

Next 0 passes for location: London (51.5072 / 0.1276)

Sorry there are no passes over London.